Location: Coll
(42.4728°N, 0.7714°E)
Time: 07:28:04
(UTC+00:00)

ERS-2 - Pass Details

Date: 23 October 2020
Orbit: 493 x 498 km, 98.6° (Epoch: 23 November)

Event Time Altitude Azimuth Distance (km) Brightness Sun altitude
Rises 04:43:45 0° 177° (S) 2,567 5.8 -18.3°
Reaches altitude 10° 04:45:52 10° 182° (S) 1,689 4.8 -18.0°
Maximum altitude 04:49:24 50° 259° (W) 641 2.2 -17.3°
Enters shadow 04:51:43 20° 328° (NNW) 1,213 3.8 -16.9°
